Weather History for Erwin, NC

Change the Weather History Date:

Monday, October 10, 2011

  Actual Average Record
Temperature  
Mean Temperature 68 °F -  
Max Temperature 75 °F 74 °F 88 °F (1990)
Min Temperature 62 °F 49 °F 33 °F (1978)
Cooling Degree Days 4    
Growing Degree Days 18 (Base 50)    
Moisture  
Dew Point 54 °F    
Average Humidity 60    
Maximum Humidity 73    
Minimum Humidity 50    
Precipitation  
Precipitation 0.00 in - - ()
Sea Level Pressure  
Sea Level Pressure 30.19 in    
Wind  
Wind Speed 8 mph (NE)    
Max Wind Speed 12 mph    
Max Gust Speed 18 mph    
Visibility 10 miles    
Events      
Averages and records for this station are not official NWS values.
T = Trace of Precipitation, MM = Missing Value Source: NWS Daily Summary

Daily Weather History Graph

Daily Weather History Graph

Search for Another Location

Airport:

Trip Planner

Search our weather history database for the weather conditions in past years. The results will help you decide how hot, cold, wet, or windy it might be!

Date:

Astronomy

Oct. 10, 2011 Rise Set
Actual Time 7:16 AM EDT 6:46 PM EDT
Civil Twilight 6:51 AM EDT 7:12 PM EDT
Nautical Twilight 6:21 AM EDT 7:41 PM EDT
Astronomical Twilight 5:52 AM EDT 8:10 PM EDT
Moon 5:49 PM EDT (10/10) 5:57 AM EDT (10/10)
Length of Visible Light 12h 20m
Length of Day
11h 29m
Waxing Gibbous, 98% of the Moon is Illuminated
Oct 10
Waxing Gibbous
Oct 11
Full
Oct 19
Last Quarter
Oct 26
New
Nov 2
First Quarter

Hourly Weather History & Observations

Time (EDT) Temp. Dew Point Humidity Pressure Visibility Wind Dir Wind Speed Gust Speed Precip Events Conditions
12:15 AM 64.4 °F 55.4 °F 73% 30.30 in 10.0 mi NE 6.9 mph - N/A   Clear
12:35 AM 64.4 °F 55.4 °F 73% 30.29 in 10.0 mi NE 5.8 mph - N/A   Clear
12:55 AM 64.4 °F 53.6 °F 68% 30.28 in 10.0 mi NE 6.9 mph - N/A   Clear
1:15 AM 62.6 °F 51.8 °F 68% 30.27 in 10.0 mi NE 8.1 mph - N/A   Clear
1:35 AM 62.6 °F 51.8 °F 68% 30.26 in 10.0 mi NNE 9.2 mph - N/A   Clear
1:55 AM 62.6 °F 51.8 °F 68% 30.26 in 10.0 mi NE 6.9 mph - N/A   Clear
2:15 AM 62.6 °F 51.8 °F 68% 30.26 in 10.0 mi NE 6.9 mph - N/A   Clear
2:35 AM 62.6 °F 50.0 °F 63% 30.26 in 10.0 mi NE 6.9 mph - N/A   Clear
3:15 AM 62.6 °F 50.0 °F 63% 30.24 in 10.0 mi NNE 6.9 mph - N/A   Clear
3:55 AM 62.6 °F 46.4 °F 55% 30.24 in 10.0 mi NNE 4.6 mph - N/A   Clear
4:15 AM 62.6 °F 44.6 °F 52% 30.23 in 10.0 mi NNE 4.6 mph - N/A   Clear
4:35 AM 62.6 °F 44.6 °F 52% 30.23 in 10.0 mi NNE 4.6 mph - N/A   Clear
5:15 AM 62.6 °F 46.4 °F 55% 30.23 in 10.0 mi NNE 6.9 mph - N/A   Clear
5:55 AM 62.6 °F 46.4 °F 55% 30.22 in 10.0 mi NNE 6.9 mph - N/A   Clear
6:35 AM 62.6 °F 46.4 °F 55% 30.22 in 10.0 mi NNE 6.9 mph - N/A   Clear
6:55 AM 62.6 °F 46.4 °F 55% 30.22 in 10.0 mi NE 6.9 mph - N/A   Clear
7:15 AM 62.6 °F 44.6 °F 52% 30.22 in 10.0 mi NNE 6.9 mph - N/A   Clear
7:35 AM 62.6 °F 44.6 °F 52% 30.22 in 10.0 mi NE 6.9 mph - N/A   Clear
7:55 AM 62.6 °F 44.6 °F 52% 30.23 in 10.0 mi NE 9.2 mph - N/A   Clear
8:15 AM 62.6 °F 44.6 °F 52% 30.23 in 10.0 mi NNE 6.9 mph - N/A   Clear
8:35 AM 62.6 °F 44.6 °F 52% 30.23 in 10.0 mi NE 8.1 mph - N/A   Clear
9:15 AM 64.4 °F 48.2 °F 56% 30.23 in 10.0 mi NE 9.2 mph - N/A   Clear
9:35 AM 64.4 °F 50.0 °F 59% 30.23 in 10.0 mi NE 8.1 mph - N/A   Clear
9:55 AM 66.2 °F 50.0 °F 56% 30.23 in 10.0 mi NE 8.1 mph - N/A   Clear
10:15 AM 68.0 °F 50.0 °F 52% 30.23 in 10.0 mi NE 9.2 mph - N/A   Scattered Clouds
10:35 AM 68.0 °F 50.0 °F 52% 30.23 in 10.0 mi NE 8.1 mph - N/A   Mostly Cloudy
10:55 AM 69.8 °F 51.8 °F 53% 30.23 in 10.0 mi NE 8.1 mph - N/A   Scattered Clouds
11:15 AM 69.8 °F 51.8 °F 53% 30.22 in 10.0 mi NE 9.2 mph - N/A   Scattered Clouds
11:35 AM 71.6 °F 51.8 °F 50% 30.22 in 10.0 mi NNE 11.5 mph - N/A   Clear
11:55 AM 71.6 °F 53.6 °F 53% 30.21 in 10.0 mi NE 11.5 mph 16.1 mph N/A   Clear
12:15 PM 73.4 °F 55.4 °F 53% 30.20 in 10.0 mi NE 8.1 mph - N/A   Clear
12:35 PM 73.4 °F 55.4 °F 53% 30.20 in 10.0 mi ENE 11.5 mph 16.1 mph N/A   Clear
12:55 PM 73.4 °F 57.2 °F 57% 30.19 in 10.0 mi NE 9.2 mph 18.4 mph N/A   Clear
1:15 PM 73.4 °F 59.0 °F 61% 30.18 in 10.0 mi NE 10.4 mph 16.1 mph N/A   Clear
1:35 PM 73.4 °F 59.0 °F 61% 30.16 in 10.0 mi ENE 10.4 mph - N/A   Clear
1:55 PM 73.4 °F 59.0 °F 61% 30.15 in 10.0 mi ENE 8.1 mph 16.1 mph N/A   Clear
2:15 PM 73.4 °F 59.0 °F 61% 30.15 in 10.0 mi ENE 8.1 mph - N/A   Clear
2:35 PM 73.4 °F 59.0 °F 61% 30.14 in 10.0 mi NE 10.4 mph - N/A   Clear
2:55 PM 73.4 °F 59.0 °F 61% 30.14 in 10.0 mi NE 9.2 mph - N/A   Clear
3:15 PM 75.2 °F 60.8 °F 61% 30.14 in 10.0 mi NE 10.4 mph - N/A   Clear
3:35 PM 75.2 °F 60.8 °F 61% 30.13 in 10.0 mi NE 10.4 mph - N/A   Scattered Clouds
3:55 PM 73.4 °F 60.8 °F 65% 30.12 in 10.0 mi NE 8.1 mph - N/A   Scattered Clouds
4:15 PM 73.4 °F 60.8 °F 65% 30.12 in 10.0 mi ENE 8.1 mph - N/A   Scattered Clouds
4:35 PM 73.4 °F 60.8 °F 65% 30.12 in 10.0 mi ENE 10.4 mph - N/A   Scattered Clouds
4:55 PM 73.4 °F 60.8 °F 65% 30.12 in 10.0 mi NE 6.9 mph - N/A   Scattered Clouds
5:15 PM 73.4 °F 60.8 °F 65% 30.11 in 10.0 mi NNE 8.1 mph - N/A   Scattered Clouds
5:35 PM 73.4 °F 60.8 °F 65% 30.11 in 10.0 mi NE 9.2 mph - N/A   Scattered Clouds
5:55 PM 71.6 °F 60.8 °F 69% 30.11 in 10.0 mi NE 9.2 mph - N/A   Scattered Clouds
6:15 PM 71.6 °F 60.8 °F 69% 30.10 in 10.0 mi NNE 5.8 mph - N/A   Scattered Clouds
6:35 PM 71.6 °F 60.8 °F 69% 30.10 in 10.0 mi NNE 6.9 mph - N/A   Mostly Cloudy
6:55 PM 71.6 °F 60.8 °F 69% 30.10 in 10.0 mi NNE 3.5 mph - N/A   Mostly Cloudy
7:15 PM 69.8 °F 60.8 °F 73% 30.10 in 10.0 mi NNE 4.6 mph - N/A   Scattered Clouds
7:35 PM 69.8 °F 59.0 °F 68% 30.10 in 10.0 mi NE 5.8 mph - N/A   Mostly Cloudy
7:55 PM 69.8 °F 59.0 °F 68% 30.10 in 10.0 mi NE 6.9 mph - N/A   Mostly Cloudy
8:15 PM 69.8 °F 59.0 °F 68% 30.09 in 10.0 mi NNE 8.1 mph - N/A   Scattered Clouds
8:35 PM 69.8 °F 59.0 °F 68% 30.09 in 10.0 mi NNE 8.1 mph - N/A   Clear
8:55 PM 69.8 °F 59.0 °F 68% 30.09 in 10.0 mi NNE 6.9 mph - N/A   Scattered Clouds
9:35 PM 68.0 °F 55.4 °F 64% 30.10 in 10.0 mi NE 6.9 mph - N/A   Scattered Clouds
9:55 PM 68.0 °F 55.4 °F 64% 30.10 in 10.0 mi NE 6.9 mph - N/A   Clear
10:15 PM 68.0 °F 55.4 °F 64% 30.10 in 10.0 mi NE 6.9 mph - N/A   Scattered Clouds
10:35 PM 68.0 °F 55.4 °F 64% 30.09 in 10.0 mi NE 6.9 mph - N/A   Scattered Clouds
10:55 PM 68.0 °F 55.4 °F 64% 30.09 in 10.0 mi NE 8.1 mph - N/A   Mostly Cloudy
11:15 PM 68.0 °F 55.4 °F 64% 30.09 in 10.0 mi NE 6.9 mph - N/A   Overcast
11:35 PM 68.0 °F 53.6 °F 60% 30.09 in 10.0 mi NNE 8.1 mph - N/A   Overcast
11:55 PM 68.0 °F 53.6 °F 60% 30.08 in 10.0 mi NE 8.1 mph - N/A   Mostly Cloudy